Showing default

ELEKTRON 3, 829

Orbit data source: Space-Track

ELEKTRON 3, 829 is a payload satellite owned by OKB-1 (CIS) that was launched on Fri, 10 Jul 1964 UTC via a VOSTOK 8K72 launch vehicle from the Tyuratam Missile And Space Complex (TTMTR). Payload-class satellites include a variety of spacecraft equipped with specific instruments for various scientific and technological missions. These include communications satellites like Starlink; space stations such as the ISS; scientific satellites like the Hubble; Earth observation satellites from companies like Planet Labs, Umbra, and HawkEye 360; GPS; miniature CubeSats for education and research; and military/defense satellites.

Loading next visibility...
Identifier
829, 1964-038A
Orbit
Active
Country
Flag of CISCIS
Related business
Manufacturer
OKB-1
Mission
Spacecraft
Bus & Motor
OBJECT D, Unknown motor
Mass
350 kg wet, 350 kg dry
Launch date (UTC)
1964-07-10 (62 years ago)
Launch vehicle
VOSTOK 8K72
Launch site
Tyuratam Missile And Space Complex (TTMTR)
Object type
Payload
Rocket body
Debris
Shape & HBR
Unknown
Radar Cross Section
Large (>1 m²)

Expand to show TLE details & history
Last TLE update: 21 hours ago

TLE from 21 hours ago
0 ELEKTRON 3
1   829U 64038A   26177.44078240  .00001989  00000-0  53495-3 0  9998
2   829  60.8015 188.0519 2941256 351.5964   4.4348  9.21297714 16300
Epoch: 2026-06-26T10:34Z
TLE epoch observation values (Epoch: 2026-06-26T10:34:43.599Z)
Latitude
-0.00013°
Longitude
114.80091°
Altitude
424.833 km
Speed
8.703 km/s
True Right ascension
12h 32m 12s
True Declination
0° 00' 00"
Sunlit
Object was in daylight at epoch
Visualization orbit readout
Latitude
Unknown
Longitude
Unknown
Altitude
Unknown
Speed
Unknown
Apparent Right ascension
Unknown
Apparent Declination
Unknown
Sunlit
N/A
Visualization observer readout
Local Sidereal Time
18:45:37
Azimuth
Unknown
Elevation
Unknown
Doppler factor
Unknown
Orbital elements
Apogee altitude
6,059.693 km
Perigee altitude
406.016 km
Semi-major axis
9,610.992 km
Eccentricity
0.29413
Inclination
60.8015°
RAAN
188.0519°
Arg. of periapsis
351.5964°
True anomaly
8.49274°
Mean anomaly
4.4348°
Eccentric anomaly
6.27747°
Mean motion
2.30351 °/min
Orbital period
156.28 mins
BSTAR
0.00053495
Loading maneuver chart data...
Computing Atmospheric mass density...
Loading historical data...
Loading historical data...
Loading historical data...
Loading historical data...
Loading historical data...
Loading historical data...
Loading historical data...

Documentation

Showing up to 5 results
|